Temp
16 16 17 17 18 17 18 19 18 19 20 21 21 24 25 25 25 26 18 18 19 19 19 19 19 18 19 19 19 19 19 19 19 19 19 19 19 19 18 18 18 18 19 18 18 17 18 17 17
15 16 17 16 16 16 18 18 19 21 21 20 21 22 23 25 23 19 18 18 19 19 19 19 19 19 19 19 19 19 19 19 19 19 19 18 18 17 18 18 18 19 18 18 17 17 17 17 17
15 15 16 17 17 19 20 17 21 21 20 20 22 22 23 24 21 20 18 19 18 19 19 19 19 19 19 19 19 19 18 18 18 18 18 17 17 17 17 18 18 18 17 17 17 17 16 16 17
15 15 15 14 16 17 19 18 17 19 20 19 20 22 22 21 21 20 19 18 18 18 18 19 19 19 19 19 18 18 18 17 17 18 18 17 17 18 17 17 18 18 17 17 16 16 16 16 15
14 13 15 13 16 18 16 18 19 19 20 20 19 22 22 20 20 19 17 18 18 18 18 19 19 19 19 18 18 18 17 17 17 18 18 18 17 17 17 17 17 17 17 16 16 16 16 15 15
15 13 13 15 17 17 17 19 18 18 19 19 19 21 22 17 18 17 17 18 18 18 18 18 19 19 18 18 18 17 17 17 18 17 18 17 16 16 16 17 17 17 17 16 16 15 15 15 14
13 13 16 16 18 16 17 16 17 19 19 18 20 20 20 18 17 17 17 18 19 18 18 18 18 18 18 18 18 17 17 17 17 17 17 17 17 16 16 16 17 16 16 16 15 15 14 14 15
13 12 14 16 16 17 17 15 17 19 20 18 21 20 22 20 18 17 17 18 18 18 18 18 18 18 17 17 17 17 17 17 17 17 16 17 16 16 16 16 16 16 16 15 15 14 14 13 15
12 13 14 16 16 17 16 16 17 17 19 17 18 20 20 18 18 17 17 18 18 17 18 18 18 17 17 17 17 17 17 17 17 17 16 16 16 16 16 16 16 16 15 15 14 14 13 14 14
13 13 14 16 17 16 17 16 18 17 17 17 18 18 17 18 18 18 18 18 18 18 18 18 18 17 17 16 16 16 17 17 17 17 17 17 15 16 16 16 15 15 15 14 13 16 15 15 14
13 13 15 15 15 15 16 15 17 17 17 17 18 20 18 18 18 18 18 18 18 18 18 17 17 17 16 16 16 16 16 17 16 16 16 16 15 15 16 15 14 14 13 13 15 15 14 14 13
12 14 14 14 14 14 14 14 16 16 18 18 17 18 18 18 18 19 18 18 18 18 17 17 17 16 16 16 16 16 16 16 16 16 16 16 15 15 16 15 14 14 14 14 15 14 14 13 13
12 13 13 14 13 13 14 14 14 14 15 15 15 17 17 18 18 18 19 18 18 18 17 17 16 16 15 16 15 16 16 16 16 15 15 15 15 15 15 15 14 13 14 14 14 14 13 12 12
10 9 10 10 11 13 12 13 13 15 16 15 15 16 17 18 19 18 18 18 18 18 17 16 16 15 15 15 15 16 16 16 16 15 15 15 14 14 15 15 14 14 14 14 14 13 12 12 12
10 9 9 9 10 11 12 12 13 14 14 14 15 15 17 17 19 18 18 18 18 18 17 16 15 15 15 15 15 16 16 16 15 15 15 14 14 14 14 14 15 13 13 14 13 12 12 11 11
7 7 6 10 11 10 11 10 14 15 15 15 14 14 16 18 18 19 17 18 17 17 16 16 15 15 15 15 15 15 16 16 15 14 14 14 13 13 13 14 14 13 13 13 12 12 11 11 10
5 4 5 6 8 10 10 10 13 15 15 15 15 15 15 16 17 17 18 17 17 16 16 16 15 15 15 15 15 15 15 15 15 14 13 13 13 13 13 13 13 13 13 12 12 11 12 10 9
2 2 2 2 6 6 5 7 8 8 8 14 16 15 15 16 17 17 17 17 16 16 16 15 15 14 14 14 13 13 13 13 14 13 13 13 13 12 12 13 13 12 12 12 11 11 10 10 8
2 1 0 2 4 4 5 6 7 9 11 9 11 15 15 15 17 17 17 16 16 16 15 15 14 14 14 13 12 12 12 12 12 13 13 12 12 12 12 13 13 12 12 12 11 11 10 8 8
2 1 0 2 4 4 4 5 7 8 9 12 10 10 13 14 15 16 17 16 16 16 15 15 14 14 13 13 12 13 12 12 12 12 13 13 13 12 12 13 12 12 12 11 11 11 7 7 9
2 1 0 1 3 4 4 3 5 8 9 10 12 11 11 12 15 16 16 16 16 15 15 14 14 13 13 13 12 12 11 10 10 11 12 12 12 12 12 13 13 12 12 12 11 11 10 7 9
0 3 3 2 2 1 3 2 6 8 9 11 12 13 12 12 14 15 16 17 16 16 15 14 14 13 13 12 12 11 11 11 11 11 12 12 12 12 12 12 13 12 12 12 12 11 12 11 10
1 3 3 2 1 1 2 1 3 6 8 9 11 13 14 13 13 14 15 16 16 15 15 14 14 13 13 12 12 12 11 12 10 10 10 11 11 12 12 13 13 13 12 12 12 11 11 11 11
3 1 2 2 2 0 1 1 3 5 8 10 12 12 13 14 13 14 15 16 17 15 15 14 14 13 13 12 12 13 12 11 10 10 10 10 11 11 12 12 13 13 12 12 12 12 12 12 12
2 0 -1 -2 -0 -1 3 1 3 6 9 10 11 12 12 14 14 14 14 15 14 15 15 14 14 13 13 12 12 12 12 12 11 10 10 9 10 11 11 12 12 12 12 12 12 12 12 12 12
0 1 1 0 2 3 5 2 5 6 8 10 11 12 13 14 14 14 14 14 15 15 15 14 14 13 12 12 12 12 12 11 11 10 10 10 10 10 11 11 12 12 12 12 12 12 12 12 11
1 1 1 1 1 1 5 6 7 4 4 6 5 9 11 13 14 13 14 14 15 15 17 15 14 13 13 12 12 12 12 11 11 11 10 10 10 11 12 12 12 12 12 12 12 11 11 11 11
1 1 0 -1 -0 1 6 4 3 1 2 4 4 6 11 12 13 13 13 14 14 15 15 15 14 14 13 12 12 12 12 11 11 11 10 11 11 11 12 12 12 12 12 12 11 11 11 11 10
1 -0 0 -0 1 1 3 4 1 -0 0 2 5 7 10 11 12 13 13 14 14 14 15 14 14 13 12 12 12 12 11 11 11 11 11 11 12 12 11 12 12 11 11 11 11 11 11 10 10
-0 -2 -1 -1 1 2 2 3 1 -1 -0 2 8 8 8 8 10 12 13 14 14 14 14 14 14 13 12 12 11 11 11 11 10 10 10 11 12 12 11 10 12 12 12 11 11 11 10 10 10
Height
790 790 790 790 804 801 793 784 779 773 770 759 756 757 756 753 759 767 750 754 757 762 767 773 779 785 789 794 798 801 805 809 813 816 819 822 824 828 830 833 835 837 840 841 843 844 844 846 848
788 789 791 795 803 799 782 779 772 755 755 754 756 756 757 753 746 749 750 752 757 763 769 773 778 784 788 793 798 802 806 810 813 817 820 823 826 829 831 834 836 839 841 843 844 845 847 849 851
788 788 791 793 786 771 768 779 761 759 759 758 756 752 750 747 744 744 745 749 757 764 769 774 778 783 788 792 797 801 806 810 814 818 821 824 828 830 833 835 837 839 841 844 846 848 850 852 853
790 791 793 793 774 768 764 764 764 762 758 759 758 756 746 740 739 740 742 747 755 762 768 773 778 783 787 792 796 800 806 810 815 818 821 825 828 831 834 836 839 840 842 845 847 850 852 855 856
790 792 791 786 765 758 764 758 756 758 756 754 754 750 747 739 739 740 743 747 752 760 767 773 778 782 787 792 796 799 804 810 815 819 822 825 828 832 834 837 840 842 844 847 849 852 854 857 860
790 791 793 768 752 757 757 750 758 756 752 752 755 752 741 737 738 740 744 748 754 759 765 773 778 782 786 792 797 800 804 809 815 820 823 825 829 833 836 838 841 844 846 849 851 855 857 860 862
791 790 762 752 744 755 746 746 752 747 745 750 742 748 739 737 738 739 743 750 755 761 767 771 777 782 787 792 796 801 805 809 815 820 823 826 830 834 837 839 842 846 849 851 854 857 860 863 864
783 786 766 743 742 731 738 741 737 739 735 736 737 738 739 730 735 740 744 751 754 761 766 770 775 781 787 793 796 801 805 810 815 819 823 827 832 836 839 841 843 847 850 853 857 860 863 866 867
782 777 750 732 744 739 736 738 732 731 733 733 729 727 725 726 732 738 744 752 755 761 764 768 773 779 785 792 797 801 806 811 816 820 823 828 834 837 840 844 846 848 852 856 860 862 865 867 870
769 760 728 734 736 737 734 735 730 731 732 732 726 724 724 727 728 732 737 745 751 756 761 765 770 776 783 790 796 801 806 811 815 820 823 828 835 839 842 845 849 851 854 858 861 864 868 870 873
754 736 729 731 733 736 733 734 729 729 728 723 722 717 721 723 726 728 732 735 740 748 756 761 767 773 780 787 793 799 804 809 815 820 824 829 835 839 842 846 849 853 855 859 862 867 871 874 876
753 735 738 734 737 738 737 735 727 725 716 715 716 716 719 719 721 724 728 734 741 749 753 757 764 770 778 784 791 796 802 808 813 819 824 829 835 838 841 844 847 853 859 861 864 869 873 876 880
745 735 737 733 735 735 734 730 732 716 715 716 717 717 717 719 719 723 725 728 735 743 749 754 761 767 775 780 788 794 801 807 812 817 824 829 835 838 841 844 850 855 859 862 866 870 875 878 882
752 748 742 740 735 731 732 727 730 692 714 716 716 715 714 715 715 719 723 725 730 739 746 752 758 764 771 777 785 792 798 805 811 816 821 828 834 838 841 845 850 856 860 864 868 872 876 880 884
749 747 739 739 735 733 730 718 706 705 713 712 711 711 710 710 710 713 717 721 724 733 740 747 754 760 767 774 782 789 796 803 810 816 821 827 834 839 843 846 851 856 860 864 869 874 878 882 886
753 750 747 732 728 729 726 703 691 701 706 703 708 708 706 702 705 708 712 718 723 728 735 745 751 757 765 772 779 786 792 800 807 815 821 827 833 838 842 847 852 856 861 865 870 875 879 883 887
758 759 755 741 736 725 723 702 695 696 698 697 698 700 703 701 700 702 707 712 719 724 730 739 746 755 761 769 776 782 790 796 804 812 820 825 832 837 842 846 852 856 861 866 871 876 880 884 889
781 780 771 769 747 738 737 720 712 712 712 694 684 688 694 694 693 695 702 708 713 721 727 733 743 751 758 767 776 781 789 796 801 808 816 823 829 835 841 846 851 856 860 865 871 875 881 885 889
778 780 780 764 747 747 735 724 712 710 702 704 698 683 684 685 690 691 695 703 708 716 724 729 737 748 754 763 770 778 784 791 799 805 812 820 826 832 839 845 850 855 859 864 870 875 879 886 890
772 774 772 757 743 740 730 717 705 708 700 693 697 696 689 684 687 686 687 694 702 709 719 725 731 741 749 756 765 771 779 788 796 802 811 818 824 830 836 842 847 852 857 864 869 872 879 886 889
767 768 765 756 741 737 728 720 709 695 693 691 685 688 691 687 683 682 683 688 695 702 711 720 726 735 744 754 763 773 781 788 796 802 808 815 821 827 832 839 845 850 856 860 866 870 874 881 887
767 749 744 744 744 748 728 720 697 685 679 679 677 677 680 683 680 679 679 684 688 697 709 716 722 732 740 749 758 764 772 781 787 792 802 809 818 824 831 837 843 849 854 858 864 869 873 876 881
761 746 742 739 744 747 730 739 705 693 677 670 665 665 665 673 674 675 674 677 686 694 704 709 719 730 736 743 752 761 770 780 783 794 801 807 815 821 828 835 840 846 852 858 862 867 872 876 880
748 747 735 729 731 737 714 725 695 686 666 655 651 654 657 660 664 668 671 675 681 689 698 706 714 725 733 741 749 757 765 774 783 791 798 805 811 818 825 831 837 843 849 855 861 866 871 875 879
752 752 755 762 743 736 697 715 687 664 657 652 651 648 651 650 656 662 669 672 678 685 693 702 710 720 729 739 746 753 760 768 776 782 790 799 805 811 818 826 832 839 847 854 859 864 869 874 879
760 753 748 741 723 700 685 692 674 662 653 646 644 646 647 647 651 656 663 667 673 680 689 697 707 716 725 735 743 752 758 764 771 779 787 794 799 805 813 821 830 837 844 851 857 862 868 873 877
755 753 746 734 723 719 676 663 654 676 673 665 666 654 643 641 645 650 656 661 667 674 682 692 702 712 721 731 740 749 755 760 768 776 783 792 798 804 812 819 827 834 841 848 854 860 865 871 876
764 757 750 754 742 716 664 674 694 694 689 672 668 659 642 640 642 647 654 660 664 671 679 689 699 706 716 726 735 744 751 757 764 772 779 787 795 800 808 816 823 830 836 844 851 856 863 868 874
759 763 755 749 738 727 701 685 709 712 698 680 660 648 639 635 639 643 650 656 662 670 678 685 695 705 712 721 731 739 748 755 760 767 775 780 789 795 806 812 817 826 832 838 846 852 858 864 869
778 778 764 752 732 722 713 696 707 712 697 673 639 640 640 637 639 640 645 653 661 667 676 683 692 701 707 718 727 736 744 751 758 764 771 777 784 792 800 810 815 823 830 835 841 848 853 860 865
Wind_Speed
7 4 2 3 2 4 7 7 1 6 4 6 6 6 14 4 6 4 2 20 23 37 36 39 36 34 34 34 32 32 28 26 24 22 21 20 20 19 18 17 17 19 17 17 17 18 20 23 23
6 4 3 2 4 8 7 6 14 19 5 2 3 3 3 8 2 2 11 13 30 36 34 36 38 36 35 36 34 31 28 25 23 21 21 19 19 18 18 18 18 18 18 19 19 24 26 25 24
5 4 3 4 6 15 9 7 19 3 10 1 1 3 5 4 2 5 7 21 32 35 34 36 38 37 37 37 36 32 29 26 23 21 21 20 20 19 19 19 22 21 21 22 24 25 26 26 26
4 1 1 5 20 9 10 9 5 5 3 4 3 7 3 4 5 6 15 28 35 35 34 38 39 36 39 37 35 31 29 26 25 23 21 23 21 19 19 22 23 21 23 24 24 26 26 25 26
2 1 5 7 19 11 8 7 6 4 3 3 6 8 4 2 5 10 22 33 38 34 33 39 39 39 39 36 34 32 30 26 27 23 23 20 21 21 22 23 25 24 27 26 26 27 26 24 25
4 0 5 15 26 9 11 15 5 8 8 2 3 5 7 1 10 17 24 32 35 34 34 35 37 39 39 37 30 31 30 31 25 23 23 23 24 22 22 22 24 24 27 26 26 25 26 26 26
3 3 15 21 21 7 11 8 11 20 15 12 4 4 2 4 10 21 27 31 31 31 32 33 38 38 38 36 30 31 30 29 27 25 25 25 21 23 23 24 25 25 27 29 28 28 28 27 27
3 3 12 17 18 24 7 9 7 19 20 4 12 8 7 6 19 22 27 29 32 32 33 33 39 39 35 32 32 31 31 29 28 27 27 23 22 23 25 23 27 27 31 31 30 29 27 26 26
4 7 20 30 17 15 1 5 5 2 6 5 8 6 2 15 25 26 27 28 29 31 32 36 37 38 35 31 33 33 32 29 27 27 27 24 24 26 22 21 27 31 33 31 29 27 27 27 28
14 13 28 9 17 8 6 9 5 5 7 5 4 5 3 24 29 26 27 27 29 34 33 37 40 38 37 35 36 32 31 29 28 27 28 26 26 25 25 24 28 33 32 30 27 25 24 24 27
13 30 23 11 4 6 12 3 4 4 9 7 10 14 13 19 23 25 30 36 39 41 33 38 38 39 36 34 36 36 34 31 29 28 28 28 28 25 27 30 34 35 34 29 29 27 26 25 26
24 26 25 28 14 6 5 4 8 12 10 1 5 1 12 17 18 22 27 31 32 36 34 39 38 40 36 39 38 38 31 34 32 30 29 29 29 27 31 35 36 33 27 29 31 28 26 26 25
21 25 23 22 12 16 19 22 15 21 8 7 5 5 11 15 17 26 32 36 36 35 31 36 40 40 36 39 37 40 35 33 32 33 32 31 28 29 32 36 35 30 26 31 32 30 28 26 26
13 21 19 14 18 21 19 17 7 31 14 16 11 7 11 16 17 22 28 31 35 36 36 40 39 39 42 37 42 41 39 35 35 34 34 32 30 29 31 34 32 28 31 32 31 30 29 29 27
15 19 19 18 18 18 14 21 32 19 2 11 14 12 14 14 19 19 27 31 38 40 39 41 40 42 41 39 41 43 40 37 36 35 34 33 30 30 27 33 31 31 32 32 32 31 30 29 27
15 14 16 19 12 8 17 32 26 17 24 25 13 9 13 17 18 26 27 31 33 35 38 38 38 40 40 38 43 42 43 40 39 36 34 33 31 31 30 32 31 33 33 33 33 32 30 28 27
4 10 15 16 15 18 16 17 18 25 17 21 22 20 15 14 17 25 31 30 33 34 38 38 39 39 40 39 42 44 44 42 42 39 35 34 32 32 31 34 33 34 35 34 34 31 31 31 29
12 13 13 17 10 23 21 24 19 23 18 18 21 21 20 18 18 23 29 35 34 36 39 41 37 37 37 36 31 35 36 37 42 40 38 37 37 35 33 33 35 36 36 35 33 33 30 30 29
11 12 13 20 23 17 21 23 22 17 19 21 16 15 18 19 16 20 28 30 37 37 36 40 38 34 35 33 32 32 35 38 40 40 41 40 37 35 35 35 36 37 38 37 34 34 34 29 32
18 15 18 18 19 14 16 22 21 16 18 18 19 16 11 11 15 11 24 26 33 36 38 39 40 40 37 37 34 36 37 33 35 38 41 41 38 35 36 38 39 40 39 36 36 37 29 25 26
17 11 13 18 21 14 17 20 18 23 17 17 19 19 16 13 15 17 14 26 33 32 34 38 40 42 37 34 32 26 24 27 26 34 40 40 39 37 37 41 41 41 41 40 38 38 36 25 19
11 10 16 16 14 7 8 8 11 13 18 18 19 20 20 17 15 15 18 20 28 35 33 38 39 39 39 39 36 38 31 31 30 41 40 43 41 39 38 40 41 41 41 40 39 37 36 37 26
17 20 20 21 17 15 17 6 7 15 16 18 19 19 21 18 15 14 17 25 30 32 35 37 39 38 37 41 38 38 31 27 26 28 32 41 41 40 40 40 41 42 41 40 38 38 35 35 29
14 15 20 16 10 10 22 10 9 15 16 11 16 18 19 18 16 16 19 26 29 29 34 37 39 37 38 39 39 39 35 30 30 29 35 37 41 41 43 42 41 41 41 39 38 36 34 33 29
9 11 4 4 2 6 4 9 16 10 20 18 12 15 17 20 15 15 15 16 25 29 35 35 38 37 39 37 38 38 38 38 39 40 38 35 38 44 47 45 43 41 39 38 37 36 34 31 30
16 6 6 6 4 12 10 7 1 14 20 18 21 10 12 16 14 16 15 16 21 33 34 35 36 35 38 38 38 37 39 38 37 39 37 39 42 40 47 45 42 40 38 36 37 36 34 30 28
7 10 14 6 9 6 5 4 5 22 18 13 12 11 8 13 14 17 19 17 23 25 35 38 37 37 39 37 37 35 37 34 34 38 37 35 34 40 44 44 41 38 36 36 36 36 34 30 27
8 8 8 3 4 6 7 5 9 24 24 21 15 12 14 11 12 13 15 14 23 27 31 34 36 37 39 39 37 36 36 37 37 39 38 39 39 42 42 44 41 39 37 37 36 35 33 30 26
8 8 5 5 4 3 5 4 13 22 21 20 19 12 13 11 11 11 14 19 25 25 28 30 31 32 34 36 35 34 33 35 39 40 41 42 44 42 44 44 42 41 39 38 36 34 33 31 27
13 12 12 2 4 4 4 2 19 24 24 24 5 7 3 1 4 10 13 13 20 25 27 30 30 30 34 33 34 33 34 34 35 35 37 41 44 43 42 42 41 39 38 37 37 36 35 33 30
Wind_Direction
201 238 205 102 185 234 236 231 312 210 211 204 145 183 203 199 172 205 323 173 163 166 164 168 166 164 160 156 154 152 151 149 150 150 147 145 145 145 137 133 126 123 122 128 118 118 120 113 108
211 176 95 102 217 230 228 220 225 219 194 145 221 190 204 229 219 131 132 165 169 164 165 165 168 163 160 162 159 155 152 152 151 152 149 148 144 138 136 135 135 132 131 125 122 114 109 108 107
183 158 133 202 228 232 245 201 239 255 249 293 160 236 224 215 196 186 176 166 163 165 164 167 167 162 164 158 154 154 153 154 153 154 149 141 139 136 136 136 136 138 134 127 116 110 106 104 105
160 73 38 234 236 244 233 199 244 262 232 236 245 272 264 242 168 196 168 163 163 167 167 169 165 168 163 154 156 155 150 151 151 151 147 142 142 140 138 140 142 147 137 125 120 114 109 106 102
152 72 234 244 241 242 222 221 210 191 220 227 198 233 247 208 215 170 162 163 165 167 168 168 169 168 161 159 162 153 151 149 148 146 147 144 140 139 140 138 146 140 127 123 116 113 112 108 104
203 181 231 241 240 229 226 230 231 245 226 182 187 253 239 329 171 162 162 165 166 166 167 169 173 167 164 165 163 153 151 147 144 149 149 144 136 139 140 147 143 137 127 123 118 116 117 113 109
261 215 239 251 251 241 224 174 211 241 244 224 213 218 271 209 182 165 162 163 167 167 167 170 170 167 168 167 163 155 152 145 149 151 147 146 146 143 144 142 140 136 129 123 119 117 115 115 117
182 240 255 243 240 255 213 180 183 219 246 241 192 223 231 206 172 160 159 165 166 171 168 170 166 166 162 164 162 154 150 151 150 153 150 150 143 139 144 138 138 135 130 123 120 115 113 114 116
150 235 250 246 236 235 115 197 183 191 209 201 194 191 230 166 160 155 159 168 162 169 170 172 163 162 161 158 158 154 153 151 155 156 148 150 147 144 146 139 137 136 128 123 121 122 115 119 116
209 226 243 264 238 252 220 206 192 170 201 232 191 232 161 162 161 163 167 169 172 171 173 172 164 163 162 158 158 153 152 156 158 160 156 154 151 149 149 148 139 132 131 127 124 132 130 126 120
220 235 236 249 301 265 242 237 218 203 228 201 201 206 179 176 176 173 174 175 177 176 172 168 166 163 158 157 159 157 159 160 160 163 161 154 153 154 147 145 137 133 136 136 130 136 133 128 124
246 248 251 263 269 291 279 303 253 232 223 176 225 235 185 187 189 185 177 177 176 175 173 168 166 161 161 161 161 163 161 164 162 165 163 159 157 159 153 150 143 145 148 141 137 141 134 129 123
254 260 266 267 271 268 266 261 267 261 242 261 248 249 191 202 195 198 187 180 177 176 171 166 168 163 162 162 164 167 165 166 164 167 167 163 162 162 157 154 151 151 151 145 140 139 135 130 125
291 300 294 295 293 273 271 268 248 251 241 246 247 240 222 205 207 198 195 180 178 178 175 171 169 166 167 162 168 170 170 169 168 169 168 167 168 170 164 156 158 153 149 146 144 142 137 129 126
272 279 287 280 287 266 284 265 242 245 264 234 229 223 221 222 209 203 193 188 178 181 176 174 169 169 168 167 168 172 173 173 171 172 172 172 171 172 172 166 164 156 152 150 146 140 135 129 123
272 271 274 279 273 287 240 255 249 246 235 240 242 239 226 217 212 208 196 194 183 176 172 171 171 170 169 168 171 172 175 175 174 173 174 176 174 173 173 165 167 159 155 152 149 144 136 128 124
284 283 303 298 312 285 249 262 274 241 253 245 238 232 232 233 217 207 195 195 187 177 170 170 169 173 171 169 173 176 176 177 174 174 178 178 177 176 175 170 169 164 159 156 153 144 143 132 123
308 315 302 295 291 312 301 285 285 302 324 277 235 222 219 220 225 199 196 192 181 179 177 172 171 175 168 165 164 166 167 172 176 176 178 180 180 180 181 175 173 168 163 158 156 151 141 139 129
284 283 273 278 284 277 274 277 280 282 282 286 302 224 218 222 223 196 184 182 178 179 182 176 168 172 163 160 159 160 166 172 173 179 179 182 183 183 182 178 177 173 170 165 161 154 149 137 136
300 286 277 286 277 292 278 270 281 277 271 254 270 283 289 219 214 208 190 181 182 178 184 178 168 169 167 166 170 170 170 171 172 177 180 182 184 183 184 183 180 177 172 168 166 163 147 146 148
294 278 270 268 288 297 277 276 272 269 263 260 235 257 267 274 226 214 198 187 180 176 177 178 167 169 168 165 159 155 154 154 159 176 181 184 185 185 187 186 185 181 180 176 175 174 165 159 165
298 281 284 287 303 292 338 294 272 256 249 243 232 228 247 253 242 213 202 195 185 181 180 174 167 169 168 166 163 160 160 165 182 181 182 184 187 187 188 188 187 185 185 182 182 181 181 173 169
291 287 285 285 275 282 268 258 268 246 269 238 231 222 227 231 223 210 201 195 189 175 176 168 166 172 168 168 169 167 171 176 170 169 176 182 187 190 189 189 189 189 190 190 188 186 186 185 177
303 291 283 270 254 263 254 210 245 232 232 232 215 214 212 218 206 205 197 196 189 176 169 168 168 171 171 172 174 175 175 168 163 169 175 181 187 190 191 191 191 192 193 194 194 193 194 194 192
319 311 320 349 196 242 253 193 234 220 224 246 240 215 204 226 202 191 188 190 175 174 172 167 170 173 172 174 176 179 180 178 178 179 177 178 182 189 193 193 193 195 197 198 199 198 198 200 199
308 328 309 303 302 290 269 223 317 243 238 229 235 228 217 222 198 184 182 190 183 177 173 170 173 171 173 176 180 182 185 182 181 180 181 185 188 188 192 194 197 200 200 202 201 200 201 203 204
321 347 299 277 266 255 251 351 58 355 360 316 340 307 215 201 184 189 188 190 186 180 182 177 177 175 175 178 181 182 184 182 182 184 187 185 188 192 194 196 198 201 203 204 202 203 204 203 204
291 334 327 333 299 311 316 76 16 354 337 324 316 281 233 216 199 177 181 184 185 181 178 179 180 180 177 178 183 182 185 188 188 184 184 187 191 196 194 196 199 202 201 203 203 203 204 201 201
346 340 340 265 261 295 311 88 12 345 327 313 296 244 238 208 185 183 181 184 181 182 180 178 176 177 173 177 180 181 182 184 190 186 189 189 194 195 196 196 197 202 200 199 201 202 200 199 198
43 350 342 285 334 326 271 323 6 343 337 338 37 93 102 128 152 186 174 170 175 178 179 179 176 176 174 178 178 179 181 182 185 183 183 192 196 195 196 199 199 201 202 200 199 199 196 197 194